Tate High School FL US WEATHERSTEM current weather conditions

sailwx.info

Wind from 238 at 2 knots gusting 14

Air temperature 21.9° C
Dewpoint 15.9° C

Last reported at 2019-Dec-06 18:50 UTC.
Time now 2019-Dec-06 20:16 UTC

Location: N 30°35' W 087°18'.
View on Google Maps.

See reports from other nearby stations

  
Tides and Currents Weather Stations Pressure Air Temp Water Temp Dewpoint Dewpoint Depression Visibility Wind Speed Wind Dir Waves Ship Positions
date/time (UTC)wind fromknots sea level pressurealtimeterstation pressurevisibilityair tempwater tempwave heightnotes
2019-Dec-06 18:50 238 2 gusting 14 21.9
2019-Dec-06 18:40 145 4 gusting 15 22.1
2019-Dec-06 18:30 145 0 gusting 8 22.2
2019-Dec-06 18:20 139 4 gusting 13 21.7
2019-Dec-06 18:10 148 10 gusting 11 21.8
2019-Dec-06 18:00 166 4 gusting 8 21.6
2019-Dec-06 17:50 115 6 gusting 10 21.3
2019-Dec-06 17:40 082 1 gusting 9 20.7
2019-Dec-06 17:30 154 6 gusting 10 20.5
2019-Dec-06 17:20 107 6 gusting 9 19.8
2019-Dec-06 17:10 108 6 gusting 6 19.4
2019-Dec-06 17:00 109 5 gusting 6 18.8
2019-Dec-06 16:50 079 6 gusting 6 18.3
2019-Dec-06 16:40 044 3 gusting 6 18.1
2019-Dec-06 16:30 066 3 gusting 6 17.3
2019-Dec-06 16:20 074 4 gusting 6 16.7
2019-Dec-06 16:10 066 2 gusting 6 16.5
2019-Dec-06 16:00 061 4 gusting 6 16.5
2019-Dec-06 15:50 089 3 gusting 5 16.3
2019-Dec-06 15:40 063 2 gusting 4 15.9
2019-Dec-06 15:30 092 3 gusting 7 15.4
2019-Dec-06 15:20 076 3 gusting 4 15.1
2019-Dec-06 15:10 067 2 gusting 6 14.9
2019-Dec-06 15:00 043 3 gusting 6 14.4
2019-Dec-06 14:50 069 4 gusting 5 13.6
2019-Dec-06 14:40 059 2 gusting 6 12.9
2019-Dec-06 14:30 077 4 gusting 4 12.5
2019-Dec-06 14:20 092 1 gusting 7 12.2
2019-Dec-06 14:10 075 4 gusting 6 12.1
2019-Dec-06 14:00 084 4 gusting 7 12.1
2019-Dec-06 13:50 077 4 gusting 6 11.8
2019-Dec-06 13:40 066 2 gusting 5 11.4
2019-Dec-06 13:30 062 3 gusting 5 11.3
2019-Dec-06 13:20 077 3 gusting 5 10.8
2019-Dec-06 13:10 057 2 gusting 4 10.2
2019-Dec-06 13:00 070 2 gusting 3 9.9
2019-Dec-06 12:50 032 3 gusting 3 9.9
2019-Dec-06 12:30 040 2 gusting 4 10.6
2019-Dec-06 12:20 057 2 gusting 2 10.3
2019-Dec-06 12:10 057 0 gusting 3 10.4
2019-Dec-06 12:00 057 2 gusting 2 10.0
2019-Dec-06 11:50 057 0 gusting 2 10.2
2019-Dec-06 11:40 057 2 gusting 3 10.2
2019-Dec-06 11:30 057 1 gusting 3 10.3
2019-Dec-06 11:20 057 3 gusting 3 10.3
2019-Dec-06 11:10 051 1 gusting 3 10.6
2019-Dec-06 11:00 058 2 gusting 3 10.9
2019-Dec-06 10:50 046 2 gusting 4 11.2
2019-Dec-06 10:40 065 2 gusting 5 11.4
2019-Dec-06 10:30 061 2 gusting 3 11.7
2019-Dec-06 10:20 078 1 gusting 3 11.8
2019-Dec-06 10:10 078 1 gusting 3 11.8
2019-Dec-06 10:00 084 1 gusting 3 11.8
2019-Dec-06 09:50 063 3 gusting 4 11.6
2019-Dec-06 09:40 088 4 gusting 6 11.6
2019-Dec-06 09:30 076 2 gusting 3 11.7
2019-Dec-06 09:20 071 1 gusting 4 11.8
2019-Dec-06 09:10 073 1 gusting 6 11.9
2019-Dec-06 09:00 094 3 gusting 3 12.1
2019-Dec-06 08:50 080 1 gusting 2 11.8
2019-Dec-06 08:40 092 1 gusting 5 11.8
2019-Dec-06 08:30 082 3 gusting 3 12.0
2019-Dec-06 08:20 11.8
2019-Dec-06 08:10 084 2 gusting 5 11.8
2019-Dec-06 08:00 081 2 gusting 3 11.7
2019-Dec-06 07:50 082 1 gusting 3 11.7
2019-Dec-06 07:40 086 2 gusting 5 11.7
2019-Dec-06 07:30 084 1 gusting 3 11.7
2019-Dec-06 07:20 088 2 gusting 5 11.6
2019-Dec-06 07:10 076 2 gusting 3 11.4
2019-Dec-06 07:00 074 1 gusting 3 11.5
2019-Dec-06 06:50 078 2 gusting 5 11.8
2019-Dec-06 06:40 073 2 gusting 5 11.8
2019-Dec-06 06:30 077 0 gusting 2 12.1
2019-Dec-06 06:20 076 3 gusting 4 12.3
2019-Dec-06 06:10 078 1 gusting 3 12.4
2019-Dec-06 06:00 075 1 gusting 3 12.3
2019-Dec-06 05:50 084 1 gusting 3 12.3
2019-Dec-06 05:40 090 1 gusting 2 12.4
2019-Dec-06 05:30 090 0 gusting 3 12.4
2019-Dec-06 05:20 080 2 gusting 3 12.3
2019-Dec-06 05:10 071 1 gusting 3 12.4
2019-Dec-06 05:00 070 1 gusting 2 12.6
2019-Dec-06 04:50 070 2 gusting 3 12.9
2019-Dec-06 04:40 086 1 gusting 3 13.4
2019-Dec-06 04:30 092 0 gusting 2 13.6
2019-Dec-06 04:20 092 2 gusting 3 13.4
2019-Dec-06 04:10 092 3 gusting 5 13.4
2019-Dec-06 04:00 091 3 gusting 3 13.5
2019-Dec-06 03:50 091 1 gusting 3 13.6
2019-Dec-06 03:40 091 1 gusting 2 13.6
2019-Dec-06 03:30 091 1 gusting 2 13.7
2019-Dec-06 03:10 091 1 gusting 2 13.6
2019-Dec-06 03:00 091 1 gusting 2 13.6
2019-Dec-06 02:50 091 2 gusting 3 13.7
2019-Dec-06 02:20 091 1 gusting 2 13.6
2019-Dec-06 02:10 091 2 gusting 2 13.9
2019-Dec-06 02:00 091 1 gusting 3 13.9
2019-Dec-06 01:50 091 1 gusting 3 14.1
2019-Dec-06 01:40 096 3 gusting 3 14.2
2019-Dec-06 01:30 109 1 gusting 2 14.2
2019-Dec-06 01:20 109 2 gusting 2 14.2
2019-Dec-06 01:10 109 1 gusting 3 14.1
2019-Dec-06 01:00 128 1 gusting 2 13.9
2019-Dec-06 00:50 13.9
2019-Dec-06 00:40 128 0 gusting 1 13.9
2019-Dec-06 00:30 128 0 gusting 1 14.0
2019-Dec-06 00:20 128 0 gusting 1 14.3
2019-Dec-06 00:10 128 0 gusting 1 14.2
2019-Dec-06 00:00 14.3
2019-Dec-05 23:50 128 1 gusting 2 14.7
2019-Dec-05 23:40 128 1 gusting 2 14.7
2019-Dec-05 23:30 128 1 gusting 3 15.1
2019-Dec-05 23:20 128 1 gusting 3 15.3
2019-Dec-05 23:00 169 3 gusting 4 15.7
2019-Dec-05 22:50 130 1 gusting 6 15.9
2019-Dec-05 22:40 136 2 gusting 6 16.2
2019-Dec-05 22:30 140 3 gusting 4 16.6
2019-Dec-05 22:20 119 3 gusting 6 16.9
2019-Dec-05 22:10 150 2 gusting 6 17.3
2019-Dec-05 22:00 136 3 gusting 7 17.4
2019-Dec-05 21:50 117 3 gusting 7 17.7
2019-Dec-05 21:40 138 2 gusting 7 17.9
2019-Dec-05 21:30 119 3 gusting 6 18.1
2019-Dec-05 21:20 173 1 gusting 4 18.2
2019-Dec-05 21:10 142 2 gusting 4 18.3
2019-Dec-05 21:00 193 0 gusting 6 18.5
2019-Dec-05 20:50 215 0 gusting 4 18.6
2019-Dec-05 20:40 105 0 gusting 7 18.5
2019-Dec-05 20:30 098 0 gusting 6 18.4
2019-Dec-05 20:20 063 0 gusting 5 18.7
2019-Dec-05 20:10 110 2 gusting 6 18.4
2019-Dec-05 20:00 164 3 gusting 6 18.4
2019-Dec-05 19:50 111 3 gusting 6 18.7
2019-Dec-05 19:40 113 0 gusting 6 18.2
2019-Dec-05 19:30 122 4 gusting 6 18.1
2019-Dec-05 19:20 159 3 gusting 6 18.3
2019-Dec-05 19:10 147 0 gusting 8 18.1
2019-Dec-05 19:00 102 2 gusting 6 18.1
2019-Dec-05 18:50 232 0 gusting 4 18.1
2019-Dec-05 18:40 191 4 gusting 5 17.8
2019-Dec-05 18:30 160 5 gusting 6 17.8
2019-Dec-05 18:20 070 1 gusting 4 17.9
2019-Dec-05 18:10 098 0 gusting 4 17.3
2019-Dec-05 18:00 186 1 gusting 6 17.1
2019-Dec-05 17:50 128 0 gusting 5 16.9
2019-Dec-05 17:40 121 1 gusting 6 16.8
2019-Dec-05 17:30 131 2 gusting 6 16.6
2019-Dec-05 17:20 136 3 gusting 5 16.4
2019-Dec-05 17:10 094 1 gusting 5 16.2
2019-Dec-05 17:00 082 1 gusting 5 16.1
2019-Dec-05 16:50 057 1 gusting 3 16.1
2019-Dec-05 16:40 327 0 gusting 2 16.0
2019-Dec-05 16:30 063 0 gusting 1 15.8
2019-Dec-05 16:20 15.4
2019-Dec-05 16:10 14.8
2019-Dec-05 16:00 065 0 gusting 2 14.3
2019-Dec-05 15:50 005 0 gusting 3 13.8
2019-Dec-05 15:40 333 1 gusting 3 13.7
2019-Dec-05 15:30 013 2 gusting 4 13.3
2019-Dec-05 15:20 032 3 gusting 5 12.7
2019-Dec-05 15:10 023 4 gusting 6 12.1
2019-Dec-05 15:00 032 5 gusting 6 11.8
2019-Dec-05 14:50 350 5 gusting 6 11.6
2019-Dec-05 14:40 017 6 gusting 6 11.1
2019-Dec-05 14:30 020 2 gusting 5 10.8
2019-Dec-05 14:20 017 2 gusting 5 10.4
2019-Dec-05 14:10 005 3 gusting 4 10.3
2019-Dec-05 14:00 355 5 gusting 6 9.8
2019-Dec-05 13:50 030 2 gusting 4 9.3
2019-Dec-05 13:40 348 2 gusting 3 8.9
2019-Dec-05 13:30 351 1 gusting 4 8.5
2019-Dec-05 13:20 355 3 gusting 3 8.4
2019-Dec-05 13:10 009 2 gusting 4 8.5
2019-Dec-05 13:00 342 1 gusting 3 8.5
2019-Dec-05 12:50 350 1 gusting 3 8.4
2019-Dec-05 12:40 340 3 gusting 3 7.5
2019-Dec-05 12:30 334 2 gusting 3 7.3
2019-Dec-05 12:20 344 1 gusting 3 7.4
2019-Dec-05 12:10 348 3 gusting 3 6.8
2019-Dec-05 12:00 355 0 gusting 2 6.7
2019-Dec-05 11:50 355 0 gusting 1 6.6
2019-Dec-05 11:40 355 0 gusting 1 7.4
2019-Dec-05 11:30 355 0 gusting 0 7.6
2019-Dec-05 11:20 355 0 gusting 1 7.8
2019-Dec-05 11:10 355 0 gusting 2 8.2
2019-Dec-05 11:00 355 2 gusting 3 8.6
2019-Dec-05 10:50 355 1 gusting 4 8.6
2019-Dec-05 10:40 344 0 gusting 2 8.9
2019-Dec-05 10:30 344 0 gusting 1 8.8
2019-Dec-05 10:20 344 1 gusting 2 9.0
2019-Dec-05 10:10 336 2 gusting 2 8.6
2019-Dec-05 10:00 336 1 gusting 3 8.8
2019-Dec-05 09:50 350 1 gusting 4 8.8
2019-Dec-05 09:40 349 1 gusting 3 8.7
2019-Dec-05 09:30 346 1 gusting 3 8.9
2019-Dec-05 09:20 349 3 gusting 4 9.2
2019-Dec-05 09:10 350 3 gusting 4 9.6
2019-Dec-05 09:00 343 1 gusting 3 9.7
2019-Dec-05 08:50 327 2 gusting 2 9.6
2019-Dec-05 08:40 324 2 gusting 3 9.4
2019-Dec-05 08:30 333 1 gusting 3 9.2
2019-Dec-05 08:20 317 0 gusting 1 9.2
2019-Dec-05 08:10 317 0 gusting 1 9.2
2019-Dec-05 08:00 317 0 gusting 1 9.5
2019-Dec-05 07:50 317 1 gusting 3 9.8
2019-Dec-05 07:40 306 2 gusting 3 9.8
2019-Dec-05 07:20 324 2 gusting 3 10.3
2019-Dec-05 07:10 320 2 gusting 4 10.4
2019-Dec-05 07:00 327 2 gusting 4 10.6
2019-Dec-05 06:50 325 2 gusting 4 10.6
2019-Dec-05 06:40 263 1 gusting 1 10.3
2019-Dec-05 06:30 263 0 gusting 0 9.8
2019-Dec-05 06:20 9.9
2019-Dec-05 06:10 9.8
2019-Dec-05 05:50 263 0 gusting 2 10.2
2019-Dec-05 05:40 263 1 gusting 2 9.9
2019-Dec-05 05:20 254 1 gusting 3 9.9
2019-Dec-05 05:10 254 0 gusting 2 10.1
2019-Dec-05 05:00 254 1 gusting 2 10.2
2019-Dec-05 04:50 253 1 gusting 2 10.2
2019-Dec-05 04:40 253 1 gusting 3 10.3
2019-Dec-05 04:30 250 2 gusting 4 10.4
2019-Dec-05 04:20 254 1 gusting 2 10.6
2019-Dec-05 04:10 254 1 gusting 2 10.6
2019-Dec-05 04:00 254 1 gusting 2 10.9
2019-Dec-05 03:50 254 1 gusting 3 10.9
2019-Dec-05 03:40 249 1 gusting 3 10.9
2019-Dec-05 03:30 238 0 gusting 2 10.6
2019-Dec-05 03:20 238 0 gusting 3 11.1
2019-Dec-05 03:10 238 2 gusting 2 11.2
2019-Dec-05 03:00 238 1 gusting 2 11.2
2019-Dec-05 02:50 238 2 gusting 2 11.1
2019-Dec-05 02:40 238 1 gusting 2 10.9
2019-Dec-05 02:30 238 1 gusting 2 11.1
2019-Dec-05 02:20 238 0 gusting 1 11.1
2019-Dec-05 02:10 238 0 gusting 2 11.4
2019-Dec-05 02:00 238 1 gusting 3 11.9
2019-Dec-05 01:50 247 2 gusting 3 12.1
2019-Dec-05 01:40 287 2 gusting 3 13.6
2019-Dec-05 01:30 304 2 gusting 3 13.9
2019-Dec-05 01:20 308 3 gusting 3 13.8
2019-Dec-05 00:50 299 2 gusting 3 14.1
2019-Dec-05 00:40 307 1 gusting 2 14.3
2019-Dec-05 00:30 307 1 gusting 2 14.3
2019-Dec-05 00:20 307 2 gusting 4 14.4
2019-Dec-05 00:10 303 3 gusting 4 14.6
2019-Dec-05 00:00 309 2 gusting 3 14.7
2019-Dec-04 23:50 306 1 gusting 3 14.6
2019-Dec-04 23:40 295 1 gusting 3 14.8
2019-Dec-04 23:30 277 1 gusting 3 14.9
2019-Dec-04 23:20 265 1 gusting 5 14.9
2019-Dec-04 23:10 250 2 gusting 2 15.3
2019-Dec-04 23:00 282 1 gusting 2 15.9
2019-Dec-04 22:50 283 1 gusting 2 16.4
2019-Dec-04 22:40 286 0 gusting 2 16.8
2019-Dec-04 22:30 277 2 gusting 5 17.1
2019-Dec-04 22:20 274 2 gusting 4 17.4
2019-Dec-04 22:10 261 3 gusting 6 17.7
2019-Dec-04 22:00 267 6 gusting 7 17.9
2019-Dec-04 21:50 240 5 gusting 8 18.1
2019-Dec-04 21:40 250 1 gusting 9 18.2
2019-Dec-04 21:30 273 0 gusting 6 18.3
2019-Dec-04 21:20 226 3 gusting 8 18.4
2019-Dec-04 21:10 235 1 gusting 8 18.6
2019-Dec-04 21:00 308 3 gusting 7 18.7
2019-Dec-04 20:50 205 3 gusting 9 18.5
2019-Dec-04 20:40 286 1 gusting 9 18.4
2019-Dec-04 20:30 325 8 gusting 10 18.7
2019-Dec-04 20:20 253 6 gusting 10 18.5
2019-Dec-04 20:10 272 6 gusting 9 18.6
2019-Dec-04 20:00 285 1 gusting 10 18.4